Regional Weather Roundup
Issued by NWS Northern Indiana

Home | Current Version | Previous Version | Graphics & Text | Print | Product List | Glossary On
Versions: 1 2 3 4 5 6 7 8 9 10 11 12 13 14 15 16 17 18 19 20 21 22 23 24 25 26 27 28 29 30 31 32 33 34 35 36 37 38 39 40 41 42 43 44 45 46 47 48 49 50
000
ASUS43 KIWX 081200
RWRIWX

KIWX WEATHER ROUNDUP
NATIONAL WEATHER SERVICE NORTHERN INDIANA
700 AM EST MON FEB 08 2016

NOTE: "FAIR" INDICATES FEW OR NO CLOUDS BELOW 12,000 FEET WITH NO
SIGNIFICANT WEATHER AND/OR OBSTRUCTIONS TO VISIBILITY.

* THESE STATIONS ARE NOT UNDER NWS QUALITY CONTROL. THEY ALSO MAY NOT
  REPORT WEATHER SUCH AS PRECIPITATION OR FOG.

INZ001>027-081300-
NORTHERN INDIANA

CITY           SKY/WX    TMP DP  RH WIND       PRES   REMARKS
GARY*          MOCLDY    32  27  80 SW6       29.64S WCI  26
SOUTH BEND     CLEAR     24  22  91 CALM      29.63S
6HR MIN TEMP:  22; 6HR MAX TEMP:  29;

ELKHART*       CLEAR     27  25  93 CALM      29.63
GOSHEN         PTCLDY    29  25  85 SW6       29.63S WCI  23
6HR MIN TEMP:  28; 6HR MAX TEMP:  33;

ANGOLA*        MOCLDY    25  25 100 CALM      29.62S
FORT WAYNE     CLOUDY    32  30  92 SW6       29.65F WCI  26
6HR MIN TEMP:  30; 6HR MAX TEMP:  34;


$$
INZ028>050-081300-
CENTRAL INDIANA

CITY           SKY/WX    TMP DP  RH WIND       PRES   REMARKS
LAFAYETTE      MOCLDY    29  26  89 W5        29.67S WCI  24
6HR MIN TEMP:  29; 6HR MAX TEMP:  36;

KOKOMO*          N/A     34  27  75 SW7       29.66F WCI  28
6HR MIN TEMP:  32; 6HR MAX TEMP:  37;

MUNCIE*        CLOUDY    35  29  78 W7        29.65F WCI  29
6HR MIN TEMP:  35; 6HR MAX TEMP:  40;

INDIANAPOLIS   CLOUDY    33  31  92 S3        29.67S
6HR MIN TEMP:  33; 6HR MAX TEMP:  37; 6HR PCP:  0.03;


$$
MIZ043>046-050>051-056>058-064>065-071>073-077>080-081300-
SOUTHWEST LOWER MICHIGAN

CITY           SKY/WX    TMP DP  RH WIND       PRES   REMARKS
BATTLE CREEK   PTCLDY    27  24  89 S5        29.61F WCI  22
6HR MIN TEMP:  27; 6HR MAX TEMP:  32;

BENTON HARBOR  CLOUDY    31  28  89 S5        29.62S WCI  26
6HR MIN TEMP:  25; 6HR MAX TEMP:  35;

COLDWATER*     PTCLDY    29  29  99 CALM      29.61F
6HR MIN TEMP:  29; 6HR MAX TEMP:  33;

HILLSDALE*     PTCLDY    31  29  93 SW3       29.61S
6HR MIN TEMP:  31; 6HR MAX TEMP:  35;

HOLLAND        CLOUDY    32  30  92 S3        29.60S
6HR MIN TEMP:  28; 6HR MAX TEMP:  34;

GRAND RAPIDS   PTCLDY    27  25  92 S8        29.60S WCI  19
6HR MIN TEMP:  26; 6HR MAX TEMP:  34;

KALAMAZOO      CLEAR     26  23  88 S6        29.61F WCI  19
6HR MIN TEMP:  26; 6HR MAX TEMP:  34;

STURGIS*       CLEAR     25  23  95 S3        29.62R
6HR MIN TEMP:  25; 6HR MAX TEMP:  32;

THREE RIVERS*  FAIR      26  26  98 SW3       29.63S FOG
6HR MIN TEMP:  25; 6HR MAX TEMP:  33;


$$
OHZ001>008-015>018-024>025-081300-
NORTHWEST OHIO

CITY           SKY/WX    TMP DP  RH WIND       PRES   REMARKS
DEFIANCE       MOCLDY    33  29  85 W3        29.65R
6HR MIN TEMP:  31; 6HR MAX TEMP:  39;

FINDLAY        CLOUDY    35  31  85 W6        29.63S WCI  30
6HR MIN TEMP:  35; 6HR MAX TEMP:  42; 6HR PCP: TRACE;

TOLEDO EXPRESS CLOUDY    31  28  89 SW5       29.63S WCI  26
6HR MIN TEMP:  31; 6HR MAX TEMP:  40;

TOLEDO METCALF PTCLDY    33  29  85 SW5       29.63F WCI  29
6HR MIN TEMP:  32; 6HR MAX TEMP:  41;

LIMA           CLOUDY    34  31  88 W7        29.63S WCI  28
6HR MIN TEMP:  34; 6HR MAX TEMP:  40; 6HR PCP: TRACE;


$$
AND FOR LAKE MICHIGAN COASTAL AND OPEN LAKE BUOY OBSERVATIONS

STATION/POSITION TEMP    WIND        PRES    VSBY  WAVE
                 AIR SEA DIR/SP/G                  HT/PER
                 (F)     (DEG/KT/KT) (MB)    (MI)  (FT/S)
CALUMET HARBOR    30     200/  5/  6 1002.9F
MICHIGAN CITY     31     180/  9/ 10   N/A
BURNS HARBOR      31     200/  8/  9 1004.4S
SAINT JOSEPH      34     210/  9/ 11 1003.4F

$$
&&



USA.gov is the U.S. government's official web portal to all federal, state and local government web resources and services.